When you browse on this site, cookies collect data to enhance your experience and personalize the content and advertising you see.
Visit our Privacy Policy to learn more. By continuing to use the site, you agree to this use of cookies and data.
  • In United Kingdom
  • List of Countries
  • For 7 days
  • Water Temperature
  • Weather Map
  • Weather Widgets
  • user-avatar
    Login

    Hourly Weather Gheorgheni

    Today, 25 January, Saturday

    Time Temperature Precipitation Wind Pressure Humidity
    00:00 -2°C° 0 mm 1 mps 690 mmHg 42%
    01:00 -3°C° 0 mm 1 mps 690 mmHg 42%
    02:00 -3°C° 0 mm 1 mps 690 mmHg 42%
    03:00 -3°C° 0 mm 1 mps 690 mmHg 44%
    04:00 -3°C° 0 mm 1 mps 690 mmHg 45%
    05:00 -5°C° 0 mm 2 mps 690 mmHg 47%
    06:00 -3°C° 0 mm 1 mps 690 mmHg 47%
    07:00 -3°C° 0 mm 1 mps 690 mmHg 48%
    08:00 -5°C° 0 mm 2 mps 690 mmHg 53%
    09:00 -3°C° 0 mm 2 mps 691 mmHg 52%
    10:00 -2°C° 0 mm 2 mps 691 mmHg 51%
    11:00 +1°C° 0 mm 2 mps 692 mmHg 50%
    12:00 +2°C° 0 mm 2 mps 691 mmHg 52%
    13:00 +3°C° 0 mm 2 mps 691 mmHg 54%
    14:00 +3°C° 0 mm 2 mps 691 mmHg 56%
    15:00 +2°C° 0 mm 2 mps 691 mmHg 62%
    16:00 +1°C° 0 mm 2 mps 691 mmHg 68%
    17:00 0°C° 0 mm 1 mps 690 mmHg 75%
    18:00 0°C° 0 mm 1 mps 690 mmHg 75%
    19:00 -1°C° 0 mm 1 mps 691 mmHg 76%
    20:00 -1°C° 0 mm 1 mps 691 mmHg 77%
    21:00 -2°C° 0 mm 1 mps 691 mmHg 77%
    22:00 -2°C° 0 mm 1 mps 691 mmHg 77%
    23:00 -2°C° 0 mm 1 mps 691 mmHg 78%

    Tomorrow, 26 January, Sunday

    Time Temperature Precipitation Wind Pressure Humidity
    00:00 -2°C° 0 mm 1 mps 691 mmHg 80%
    01:00 -2°C° 0 mm 1 mps 691 mmHg 82%
    02:00 -2°C° 0 mm 1 mps 691 mmHg 84%
    03:00 -2°C° 0 mm 1 mps 691 mmHg 86%
    04:00 -2°C° 0 mm 1 mps 691 mmHg 88%
    05:00 -2°C° 0 mm 1 mps 691 mmHg 90%
    06:00 -2°C° 0 mm 1 mps 691 mmHg 91%
    07:00 -3°C° 0 mm 0 mps 691 mmHg 92%
    08:00 -3°C° 0 mm 0 mps 691 mmHg 93%
    09:00 -1°C° 0 mm 0 mps 692 mmHg 89%
    10:00 +1°C° 0 mm 0 mps 692 mmHg 84%
    11:00 +2°C° 0 mm 0 mps 693 mmHg 79%
    12:00 +3°C° 0 mm 0 mps 692 mmHg 78%
    13:00 +5°C° 0 mm 1 mps 692 mmHg 77%
    14:00 +6°C° 0 mm 1 mps 692 mmHg 77%
    15:00 +4°C° 0 mm 1 mps 691 mmHg 82%
    16:00 +3°C° 0 mm 1 mps 691 mmHg 87%
    17:00 +2°C° 0 mm 1 mps 691 mmHg 92%
    18:00 +1°C° 0 mm 0 mps 691 mmHg 92%
    19:00 +1°C° 0 mm 0 mps 691 mmHg 92%
    20:00 0°C° 0 mm 0 mps 691 mmHg 93%
    21:00 0°C° 0 mm 0 mps 691 mmHg 93%
    22:00 0°C° 0 mm 0 mps 690 mmHg 93%
    23:00 0°C° 0 mm 0 mps 690 mmHg 93%

    Day after tomorrow, 27 January, Monday

    Time Temperature Precipitation Wind Pressure Humidity
    00:00 0°C° 0 mm 0 mps 690 mmHg 93%
    01:00 0°C° 0 mm 0 mps 690 mmHg 93%
    02:00 0°C° 0 mm 0 mps 689 mmHg 93%
    03:00 0°C° 0 mm 0 mps 689 mmHg 93%
    04:00 -1°C° 0 mm 0 mps 689 mmHg 93%
    05:00 -1°C° 0 mm 0 mps 689 mmHg 92%
    06:00 -1°C° 0 mm 0 mps 689 mmHg 92%
    07:00 -1°C° 0 mm 0 mps 688 mmHg 92%
    08:00 -1°C° 0 mm 0 mps 688 mmHg 92%
    09:00 +1°C° 0 mm 0 mps 689 mmHg 88%
    10:00 +2°C° 0 mm 0 mps 689 mmHg 84%
    11:00 +3°C° 0 mm 0 mps 689 mmHg 80%
    12:00 +4°C° 0 mm 0 mps 689 mmHg 79%
    13:00 +4°C° 0 mm 0 mps 688 mmHg 78%
    14:00 +6°C° 0 mm 1 mps 688 mmHg 77%
    15:00 +4°C° 0 mm 0 mps 688 mmHg 82%
    16:00 +3°C° 0 mm 0 mps 687 mmHg 86%
    17:00 +2°C° 0 mm 0 mps 687 mmHg 91%
    18:00 +2°C° 0 mm 0 mps 687 mmHg 92%
    19:00 +1°C° 0 mm 0 mps 687 mmHg 92%
    20:00 +1°C° 0 mm 0 mps 687 mmHg 93%
    21:00 +1°C° 0 mm 0 mps 687 mmHg 94%
    22:00 +1°C° 0 mm 0 mps 686 mmHg 95%
    23:00 0°C° 0 mm 0 mps 686 mmHg 95%

    28 January, Tuesday

    Time Temperature Precipitation Wind Pressure Humidity
    00:00 0°C° 0 mm 0 mps 686 mmHg 96%
    01:00 0°C° 0 mm 0 mps 686 mmHg 96%
    02:00 +1°C° 0 mm 1 mps 685 mmHg 97%
    03:00 +1°C° 0 mm 1 mps 685 mmHg 97%
    04:00 +1°C° 0 mm 1 mps 685 mmHg 97%
    05:00 +1°C° 0 mm 1 mps 685 mmHg 97%
    06:00 0°C° 0 mm 0 mps 685 mmHg 97%
    07:00 0°C° 0 mm 0 mps 684 mmHg 96%
    08:00 0°C° 0 mm 0 mps 684 mmHg 96%
    09:00 +2°C° 0 mm 1 mps 684 mmHg 91%
    10:00 +2°C° 0 mm 1 mps 684 mmHg 87%
    11:00 +3°C° 0 mm 1 mps 684 mmHg 83%
    12:00 +4°C° 0 mm 1 mps 684 mmHg 80%
    13:00 +4°C° 0 mm 1 mps 683 mmHg 78%
    14:00 +4°C° 0 mm 1 mps 683 mmHg 75%
    15:00 +3°C° 0 mm 1 mps 682 mmHg 80%
    16:00 +2°C° 0 mm 1 mps 682 mmHg 85%
    17:00 +2°C° 0 mm 1 mps 681 mmHg 90%
    18:00 +1°C° 0 mm 1 mps 681 mmHg 90%
    19:00 +1°C° 0 mm 1 mps 681 mmHg 90%
    20:00 +1°C° 0 mm 1 mps 681 mmHg 90%
    21:00 -1°C° 0.1 mm 2 mps 681 mmHg 91%
    22:00 -1°C° 0.1 mm 2 mps 681 mmHg 91%
    23:00 -1°C° 0.1 mm 2 mps 680 mmHg 92%

    29 January, Wednesday

    Time Temperature Precipitation Wind Pressure Humidity
    00:00 +1°C° 0.2 mm 2 mps 680 mmHg 93%
    01:00 +1°C° 0.2 mm 2 mps 679 mmHg 95%
    02:00 +1°C° 0.2 mm 2 mps 679 mmHg 96%
    03:00 +1°C° 0.3 mm 2 mps 679 mmHg 96%
    04:00 +1°C° 0.3 mm 2 mps 678 mmHg 97%
    05:00 0°C° 0.3 mm 3 mps 678 mmHg 97%
    06:00 -1°C° 0.5 mm 4 mps 678 mmHg 96%
    07:00 0°C° 0.5 mm 5 mps 678 mmHg 95%
    08:00 -1°C° 0.5 mm 6 mps 678 mmHg 95%
    09:00 0°C° 0.1 mm 5 mps 678 mmHg 93%
    10:00 -1°C° 0.1 mm 5 mps 678 mmHg 91%
    11:00 -1°C° 0.1 mm 5 mps 679 mmHg 89%
    12:00 0°C° 0 mm 4 mps 679 mmHg 82%
    13:00 0°C° 0 mm 4 mps 680 mmHg 75%
    14:00 0°C° 0 mm 4 mps 680 mmHg 68%
    15:00 0°C° 0 mm 3 mps 680 mmHg 73%
    16:00 -1°C° 0 mm 2 mps 680 mmHg 78%
    17:00 0°C° 0 mm 1 mps 680 mmHg 84%
    18:00 0°C° 0 mm 1 mps 680 mmHg 87%
    19:00 0°C° 0 mm 1 mps 680 mmHg 90%
    20:00 -1°C° 0 mm 1 mps 680 mmHg 93%
    21:00 -1°C° 0.7 mm 1 mps 680 mmHg 94%
    22:00 0°C° 0.7 mm 1 mps 681 mmHg 95%
    23:00 0°C° 0.7 mm 1 mps 681 mmHg 96%

    30 January, Thursday

    Time Temperature Precipitation Wind Pressure Humidity
    00:00 -3°C° 0.2 mm 2 mps 681 mmHg 94%
    01:00 -3°C° 0.2 mm 2 mps 681 mmHg 93%
    02:00 -5°C° 0.2 mm 3 mps 681 mmHg 92%
    03:00 -5°C° 0.1 mm 3 mps 681 mmHg 92%
    04:00 -6°C° 0.1 mm 3 mps 681 mmHg 92%
    05:00 -5°C° 0.1 mm 2 mps 681 mmHg 93%
    06:00 -5°C° 0.1 mm 2 mps 682 mmHg 93%
    07:00 -5°C° 0.1 mm 2 mps 682 mmHg 93%
    08:00 -5°C° 0.1 mm 2 mps 683 mmHg 94%
    09:00 -5°C° 0 mm 2 mps 683 mmHg 88%
    10:00 -5°C° 0 mm 3 mps 684 mmHg 82%
    11:00 -4°C° 0 mm 3 mps 684 mmHg 76%
    12:00 -4°C° 0 mm 3 mps 684 mmHg 76%
    13:00 -3°C° 0 mm 4 mps 684 mmHg 75%
    14:00 -3°C° 0 mm 4 mps 684 mmHg 75%
    15:00 -4°C° 0.1 mm 3 mps 684 mmHg 80%
    16:00 -4°C° 0.1 mm 3 mps 684 mmHg 84%
    17:00 -4°C° 0.1 mm 2 mps 685 mmHg 89%
    18:00 -4°C° 0.1 mm 2 mps 685 mmHg 91%
    19:00 -5°C° 0.1 mm 2 mps 685 mmHg 93%
    20:00 -5°C° 0.1 mm 2 mps 686 mmHg 95%
    21:00 -5°C° 0 mm 2 mps 686 mmHg 94%
    22:00 -5°C° 0 mm 2 mps 686 mmHg 94%
    23:00 -5°C° 0 mm 2 mps 686 mmHg 93%
    Show more